This demonstration page uses our WeatherBlox Daily Observations layout. Learn more.

Left ArrowRight Arrow

Hourly Observations for December 18, 2021

Temp ( °F °C ) Dew Point ( °F °C ) Humidity (%) Winds ( mph kmh ) Pressure ( in mb ) Visibility ( mi km ) Precip ( " mm )
12:56 am 00:56 Clear 27 -2.7 20 -6.5 75 75 NW 8 13 30.18 1022 10 16 0.00 0.00
1:56 am 01:56 Mostly Clear 27 -2.9 20 -6.4 77 77 NW 9 15 30.22 1024 10 16 0.00 0.00
2:56 am 02:56 Mostly Cloudy 27 -3 21 -6.3 78 78 WNW 10 17 30.24 1024 10 16 0.00 0.00
3:56 am 03:56 Mostly Cloudy 28 -2 21 -6 74 74 NW 14 22 30.25 1025 10 16 0.00 0.00
4:56 am 04:56 Mostly Cloudy 30 -1.1 23 -5 75 75 NW 16 26 30.27 1025 10 16 0.00 0.00
5:56 am 05:56 Mostly Cloudy 26 -3.1 20 -6.4 78 78 NW 21 33 30.32 1027 10 16 0.00 0.00
6:56 am 06:56 Cloudy 25 -4 19 -7.3 78 78 NW 17 28 30.35 1028 10 16 0.00 0.00
7:56 am 07:56 Cloudy 24 -4.7 17 -8.3 76 76 NW 14 22 30.38 1029 10 16 0.00 0.00
8:56 am 08:56 Cloudy 23 -4.9 15 -9.7 69 69 NW 14 22 30.40 1030 10 16 0.00 0.00
9:56 am 09:56 Cloudy 23 -5 13 -10.6 65 65 NNW 16 26 30.43 1031 10 16 0.00 0.00
10:56 am 10:56 Cloudy 23 -4.8 13 -10.8 63 63 NW 13 20 30.44 1031 10 16 0.00 0.00
11:56 am 11:56 Cloudy 24 -4.7 12 -10.9 62 62 NW 15 24 30.43 1030 10 16 0.00 0.00
12:56 pm 12:56 Mostly Cloudy 24 -4.3 12 -10.9 60 60 NW 12 19 30.42 1030 10 16 0.00 0.00
1:56 pm 13:56 Cloudy 25 -4 12 -11.1 58 58 NNW 12 19 30.41 1030 10 16 0.00 0.00
2:56 pm 14:56 Cloudy 24 -4.2 12 -11.2 59 59 NW 13 20 30.42 1030 10 16 0.00 0.00
3:56 pm 15:56 Cloudy 24 -4.4 11 -11.4 59 59 NW 9 15 30.43 1030 10 16 0.00 0.00
4:56 pm 16:56 Mostly Sunny 24 -4.7 12 -11.3 60 60 NW 9 15 30.44 1031 10 16 0.00 0.00
5:56 pm 17:56 Cloudy 23 -5 12 -11.2 62 62 NW 8 13 30.44 1031 10 16 0.00 0.00
6:56 pm 18:56 Mostly Cloudy 22 -5.7 11 -11.4 65 65 NNW 8 13 30.45 1031 10 16 0.00 0.00
7:56 pm 19:56 Partly Cloudy 20 -6.7 11 -11.6 68 68 NW 6 9 30.47 1032 10 16 0.00 0.00
8:56 pm 20:56 Mostly Clear 19 -7.5 11 -11.7 72 72 WNW 3 6 30.47 1032 10 16 0.00 0.00
9:56 pm 21:56 Mostly Cloudy 19 -7 11 -11.4 71 71 Calm 30.45 1031 10 16 0.00 0.00
10:56 pm 22:56 undefined 20 -6.8 11 -11.7 68 68 W 5 7 30.45 1031 10 16 0.00 0.00
11:56 pm 23:56 Mostly Cloudy 20 -6.8 11 -11.6 69 69 WNW 5 7 30.45 1031 10 16 0.00 0.00

Powered by AerisWeather